Time,TemperatureF,DewpointF,PressureIn,WindDirection,WindDirectionDegrees,WindSpeedMPH,WindSpeedGustMPH,Humidity,HourlyPrecipIn,Conditions,Clouds,dailyrainin,SoftwareType,DateUTC
2013-07-21 00:14:00,79.3,75.0,30.03,WSW,258,7.0,18.0,87,0.00,,,0.00,weatherlink.com 1.10,2013-07-21 04:14:00,
2013-07-21 00:29:00,79.2,75.0,30.03,West,279,10.0,14.0,87,0.00,,,0.00,weatherlink.com 1.10,2013-07-21 04:29:00,
2013-07-21 00:44:00,78.9,75.0,30.03,WSW,255,6.0,13.0,88,0.00,,,0.00,weatherlink.com 1.10,2013-07-21 04:44:00,
2013-07-21 00:59:00,78.8,75.0,30.02,WSW,256,8.0,16.0,89,0.00,,,0.00,weatherlink.com 1.10,2013-07-21 04:59:00,
2013-07-21 01:14:00,79.1,76.0,30.02,West,259,10.0,17.0,89,0.00,,,0.00,weatherlink.com 1.10,2013-07-21 05:14:00,
2013-07-21 01:29:00,79.1,75.0,30.02,SW,230,7.0,20.0,88,0.00,,,0.00,weatherlink.com 1.10,2013-07-21 05:29:00,
2013-07-21 01:44:00,79.0,75.0,30.01,West,261,6.0,17.0,88,0.00,,,0.00,weatherlink.com 1.10,2013-07-21 05:44:00,
2013-07-21 01:59:00,78.8,75.0,30.01,West,265,5.0,16.0,87,0.00,,,0.00,weatherlink.com 1.10,2013-07-21 05:59:00,
2013-07-21 02:14:00,78.9,74.0,30.01,West,273,6.0,14.0,86,0.00,,,0.00,weatherlink.com 1.10,2013-07-21 06:14:00,
2013-07-21 02:29:00,78.9,73.0,30.00,West,269,7.0,15.0,83,0.00,,,0.00,weatherlink.com 1.10,2013-07-21 06:29:00,
2013-07-21 02:44:00,79.2,73.0,30.00,WSW,251,12.0,16.0,80,0.00,,,0.00,weatherlink.com 1.10,2013-07-21 06:44:00,
2013-07-21 02:59:00,78.9,73.0,30.00,WSW,240,9.0,16.0,82,0.00,,,0.00,weatherlink.com 1.10,2013-07-21 06:59:00,
2013-07-21 03:14:00,78.4,73.0,30.00,WSW,240,9.0,14.0,83,0.00,,,0.00,weatherlink.com 1.10,2013-07-21 07:14:00,
2013-07-21 03:29:00,77.9,73.0,29.99,West,267,9.0,15.0,85,0.00,,,0.00,weatherlink.com 1.10,2013-07-21 07:29:00,
2013-07-21 03:44:00,77.6,73.0,29.99,West,261,4.0,12.0,86,0.00,,,0.00,weatherlink.com 1.10,2013-07-21 07:44:00,
2013-07-21 03:59:00,77.7,74.0,29.99,WSW,249,6.0,15.0,87,0.00,,,0.00,weatherlink.com 1.10,2013-07-21 07:59:00,
2013-07-21 04:14:00,77.8,74.0,29.98,West,280,7.0,12.0,88,0.00,,,0.00,weatherlink.com 1.10,2013-07-21 08:14:00,
2013-07-21 04:29:00,77.7,74.0,29.98,WSW,257,8.0,14.0,89,0.00,,,0.00,weatherlink.com 1.10,2013-07-21 08:29:00,
2013-07-21 04:44:00,77.6,74.0,29.98,West,272,6.0,14.0,88,0.00,,,0.00,weatherlink.com 1.10,2013-07-21 08:44:00,
2013-07-21 04:59:00,77.8,74.0,29.98,WSW,250,11.0,12.0,88,0.00,,,0.00,weatherlink.com 1.10,2013-07-21 08:59:00,
2013-07-21 05:14:00,77.7,74.0,29.98,WSW,238,7.0,13.0,88,0.00,,,0.00,weatherlink.com 1.10,2013-07-21 09:14:00,
2013-07-21 05:29:00,77.8,74.0,29.98,WSW,248,6.0,12.0,88,0.00,,,0.00,weatherlink.com 1.10,2013-07-21 09:29:00,
2013-07-21 05:44:00,77.7,74.0,29.99,WSW,248,5.0,10.0,89,0.00,,,0.00,weatherlink.com 1.10,2013-07-21 09:44:00,
2013-07-21 05:59:00,77.7,74.0,29.99,West,274,3.0,9.0,89,0.00,,,0.00,weatherlink.com 1.10,2013-07-21 09:59:00,
2013-07-21 06:14:00,77.8,75.0,29.99,West,263,8.0,11.0,90,0.00,,,0.00,weatherlink.com 1.10,2013-07-21 10:14:00,
2013-07-21 06:29:00,77.9,75.0,29.99,WSW,250,3.0,12.0,90,0.00,,,0.00,weatherlink.com 1.10,2013-07-21 10:29:00,
2013-07-21 06:44:00,77.9,75.0,29.99,West,275,7.0,10.0,90,0.00,,,0.00,weatherlink.com 1.10,2013-07-21 10:44:00,
2013-07-21 06:59:00,77.8,75.0,30.00,West,259,5.0,8.0,90,0.00,,,0.00,weatherlink.com 1.10,2013-07-21 10:59:00,
2013-07-21 07:14:00,77.4,75.0,30.00,WSW,254,2.0,7.0,91,0.00,,,0.00,weatherlink.com 1.10,2013-07-21 11:14:00,
2013-07-21 07:29:00,77.4,75.0,30.00,West,270,2.0,7.0,91,0.00,,,0.00,weatherlink.com 1.10,2013-07-21 11:29:00,
2013-07-21 07:45:00,78.1,75.0,30.00,WNW,286,3.0,7.0,91,0.00,,,0.00,weatherlink.com 1.10,2013-07-21 11:45:00,
2013-07-21 07:59:00,77.9,75.0,30.00,West,271,5.0,8.0,89,0.00,,,0.00,weatherlink.com 1.10,2013-07-21 11:59:00,
2013-07-21 08:14:00,78.6,75.0,30.01,WNW,290,3.0,9.0,88,0.00,,,0.00,weatherlink.com 1.10,2013-07-21 12:14:00,
2013-07-21 08:29:00,78.6,74.0,30.01,West,270,5.0,12.0,85,0.00,,,0.00,weatherlink.com 1.10,2013-07-21 12:29:00,
2013-07-21 08:44:00,79.2,74.0,30.01,West,268,6.0,12.0,85,0.00,,,0.00,weatherlink.com 1.10,2013-07-21 12:44:00,
2013-07-21 08:59:00,79.5,75.0,30.01,NW,306,7.0,12.0,85,0.00,,,0.00,weatherlink.com 1.10,2013-07-21 12:59:00,
2013-07-21 09:14:00,79.6,74.0,30.01,West,277,8.0,14.0,83,0.00,,,0.00,weatherlink.com 1.10,2013-07-21 13:14:00,
2013-07-21 09:29:00,79.8,75.0,30.01,WSW,252,7.0,15.0,84,0.00,,,0.00,weatherlink.com 1.10,2013-07-21 13:29:00,
2013-07-21 09:44:00,79.7,75.0,30.02,WSW,243,5.0,14.0,84,0.00,,,0.00,weatherlink.com 1.10,2013-07-21 13:44:00,
2013-07-21 09:59:00,79.0,74.0,30.02,West,277,11.0,16.0,84,0.00,,,0.00,weatherlink.com 1.10,2013-07-21 13:59:00,
2013-07-21 10:14:00,79.4,74.0,30.02,West,263,8.0,15.0,84,0.00,,,0.00,weatherlink.com 1.10,2013-07-21 14:14:00,
2013-07-21 10:29:00,79.5,74.0,30.02,WSW,245,10.0,17.0,84,0.00,,,0.00,weatherlink.com 1.10,2013-07-21 14:29:00,
2013-07-21 10:44:00,78.8,74.0,30.02,WSW,240,9.0,16.0,85,0.00,,,0.00,weatherlink.com 1.10,2013-07-21 14:44:00,
2013-07-21 10:59:00,79.2,74.0,30.02,WSW,251,7.0,14.0,85,0.00,,,0.00,weatherlink.com 1.10,2013-07-21 14:59:00,
2013-07-21 11:14:00,79.3,74.0,30.02,West,281,5.0,14.0,84,0.00,,,0.00,weatherlink.com 1.10,2013-07-21 15:14:00,
2013-07-21 11:29:00,79.2,74.0,30.03,West,272,4.0,16.0,85,0.00,,,0.00,weatherlink.com 1.10,2013-07-21 15:29:00,
2013-07-21 11:44:00,79.2,74.0,30.03,SW,226,11.0,15.0,84,0.00,,,0.00,weatherlink.com 1.10,2013-07-21 15:44:00,
2013-07-21 11:59:00,79.6,74.0,30.03,SW,232,4.0,13.0,84,0.00,,,0.00,weatherlink.com 1.10,2013-07-21 15:59:00,
2013-07-21 12:14:00,79.8,75.0,30.02,SW,234,7.0,13.0,85,0.00,,,0.00,weatherlink.com 1.10,2013-07-21 16:14:00,
2013-07-21 12:29:00,80.6,75.0,30.02,WSW,252,3.0,11.0,84,0.00,,,0.00,weatherlink.com 1.10,2013-07-21 16:29:00,
2013-07-21 12:44:00,80.5,75.0,30.02,WSW,249,9.0,12.0,84,0.00,,,0.00,weatherlink.com 1.10,2013-07-21 16:44:00,
2013-07-21 12:59:00,81.0,75.0,30.02,SW,234,4.0,11.0,83,0.00,,,0.00,weatherlink.com 1.10,2013-07-21 16:59:00,
2013-07-21 13:14:00,80.0,75.0,30.02,SSW,205,7.0,12.0,84,0.00,,,0.00,weatherlink.com 1.10,2013-07-21 17:14:00,
2013-07-21 13:29:00,79.6,75.0,30.01,WSW,238,4.0,14.0,86,0.00,,,0.00,weatherlink.com 1.10,2013-07-21 17:29:00,
2013-07-21 13:44:00,79.7,75.0,30.01,WSW,241,8.0,14.0,86,0.00,,,0.00,weatherlink.com 1.10,2013-07-21 17:44:00,
2013-07-21 13:59:00,79.7,76.0,30.00,SW,223,12.0,15.0,87,0.00,,,0.00,weatherlink.com 1.10,2013-07-21 17:59:00,
2013-07-21 14:14:00,79.9,75.0,30.00,SW,228,13.0,20.0,86,0.00,,,0.00,weatherlink.com 1.10,2013-07-21 18:14:00,
2013-07-21 14:29:00,80.0,76.0,29.99,WSW,239,6.0,19.0,87,0.00,,,0.00,weatherlink.com 1.10,2013-07-21 18:29:00,
2013-07-21 14:44:00,80.0,76.0,29.99,South,188,8.0,19.0,87,0.00,,,0.00,weatherlink.com 1.10,2013-07-21 18:44:00,
2013-07-21 14:59:00,80.4,76.0,29.98,SW,219,9.0,20.0,85,0.00,,,0.00,weatherlink.com 1.10,2013-07-21 18:59:00,
2013-07-21 15:14:00,80.7,76.0,29.97,SW,221,8.0,18.0,86,0.00,,,0.00,weatherlink.com 1.10,2013-07-21 19:14:00,
2013-07-21 15:30:00,81.1,76.0,29.97,WSW,238,9.0,17.0,85,0.00,,,0.00,weatherlink.com 1.10,2013-07-21 19:30:00,
2013-07-21 15:45:00,81.0,76.0,29.97,WSW,258,7.0,16.0,85,0.00,,,0.00,weatherlink.com 1.10,2013-07-21 19:45:00,
2013-07-21 16:00:00,80.8,76.0,29.96,West,273,10.0,17.0,85,0.00,,,0.00,weatherlink.com 1.10,2013-07-21 20:00:00,
2013-07-21 16:15:00,80.5,76.0,29.96,South,184,8.0,19.0,86,0.00,,,0.00,weatherlink.com 1.10,2013-07-21 20:15:00,
2013-07-21 16:30:00,79.8,76.0,29.95,SW,225,8.0,18.0,87,0.00,,,0.00,weatherlink.com 1.10,2013-07-21 20:30:00,
2013-07-21 16:45:00,79.7,76.0,29.95,SW,234,12.0,17.0,88,0.00,,,0.00,weatherlink.com 1.10,2013-07-21 20:45:00,
2013-07-21 17:00:00,79.8,76.0,29.95,SW,236,5.0,15.0,88,0.00,,,0.00,weatherlink.com 1.10,2013-07-21 21:00:00,
2013-07-21 17:15:00,79.8,76.0,29.94,SW,222,9.0,17.0,88,0.00,,,0.00,weatherlink.com 1.10,2013-07-21 21:15:00,
2013-07-21 17:30:00,79.7,76.0,29.94,WSW,244,5.0,16.0,88,0.00,,,0.00,weatherlink.com 1.10,2013-07-21 21:30:00,
2013-07-21 17:45:00,79.9,76.0,29.94,West,265,3.0,14.0,88,0.00,,,0.00,weatherlink.com 1.10,2013-07-21 21:45:00,
2013-07-21 18:00:00,79.9,76.0,29.94,WSW,252,5.0,14.0,88,0.00,,,0.00,weatherlink.com 1.10,2013-07-21 22:00:00,
2013-07-21 18:15:00,79.9,77.0,29.94,SW,225,8.0,14.0,89,0.00,,,0.00,weatherlink.com 1.10,2013-07-21 22:15:00,
2013-07-21 18:30:00,79.6,76.0,29.94,SW,225,8.0,16.0,89,0.00,,,0.00,weatherlink.com 1.10,2013-07-21 22:30:00,
2013-07-21 18:45:00,79.8,76.0,29.94,West,262,10.0,18.0,89,0.00,,,0.00,weatherlink.com 1.10,2013-07-21 22:45:00,
2013-07-21 19:00:00,79.7,77.0,29.94,West,268,8.0,15.0,90,0.00,,,0.00,weatherlink.com 1.10,2013-07-21 23:00:00,
2013-07-21 19:15:00,79.7,77.0,29.94,SW,236,8.0,15.0,90,0.00,,,0.00,weatherlink.com 1.10,2013-07-21 23:15:00,
2013-07-21 19:30:00,79.4,77.0,29.94,SSW,205,8.0,15.0,91,0.00,,,0.00,weatherlink.com 1.10,2013-07-21 23:30:00,
2013-07-21 19:45:00,78.9,76.0,29.94,SSW,203,11.0,18.0,91,0.00,,,0.00,weatherlink.com 1.10,2013-07-21 23:45:00,
2013-07-21 20:00:00,78.9,77.0,29.95,SW,232,3.0,15.0,92,0.00,,,0.00,weatherlink.com 1.10,2013-07-22 00:00:00,
2013-07-21 20:15:00,78.8,76.0,29.96,WSW,245,6.0,15.0,92,0.00,,,0.00,weatherlink.com 1.10,2013-07-22 00:15:00,
2013-07-21 20:30:00,78.8,76.0,29.97,WSW,248,6.0,12.0,92,0.00,,,0.00,weatherlink.com 1.10,2013-07-22 00:30:00,
2013-07-21 20:45:00,78.8,76.0,29.97,WSW,238,7.0,15.0,91,0.00,,,0.00,weatherlink.com 1.10,2013-07-22 00:45:00,
2013-07-21 21:00:00,78.7,76.0,29.96,West,261,3.0,14.0,91,0.00,,,0.00,weatherlink.com 1.10,2013-07-22 01:00:00,
2013-07-21 21:15:00,78.7,76.0,29.97,West,262,5.0,13.0,91,0.00,,,0.00,weatherlink.com 1.10,2013-07-22 01:15:00,
2013-07-21 21:30:00,78.7,76.0,29.98,WSW,250,4.0,12.0,90,0.00,,,0.00,weatherlink.com 1.10,2013-07-22 01:30:00,
2013-07-21 21:45:00,78.6,76.0,29.97,SW,234,9.0,11.0,91,0.00,,,0.00,weatherlink.com 1.10,2013-07-22 01:45:00,
2013-07-21 22:00:00,78.3,76.0,29.98,West,277,5.0,9.0,91,0.00,,,0.00,weatherlink.com 1.10,2013-07-22 02:00:00,
2013-07-21 22:15:00,78.3,76.0,29.99,WSW,251,5.0,9.0,92,0.00,,,0.00,weatherlink.com 1.10,2013-07-22 02:15:00,
2013-07-21 22:30:00,78.2,76.0,29.99,WSW,248,4.0,8.0,92,0.00,,,0.00,weatherlink.com 1.10,2013-07-22 02:30:00,
2013-07-21 22:45:00,78.0,76.0,29.98,WSW,243,6.0,8.0,92,0.00,,,0.00,weatherlink.com 1.10,2013-07-22 02:45:00,
2013-07-21 23:00:00,77.9,76.0,29.98,WSW,248,5.0,8.0,92,0.00,,,0.00,weatherlink.com 1.10,2013-07-22 03:00:00,
2013-07-21 23:15:00,77.8,76.0,29.98,WSW,239,6.0,7.0,93,0.00,,,0.00,weatherlink.com 1.10,2013-07-22 03:15:00,
2013-07-21 23:30:00,77.8,76.0,29.98,SW,233,1.0,8.0,93,0.00,,,0.00,weatherlink.com 1.10,2013-07-22 03:30:00,
2013-07-21 23:45:00,77.6,76.0,29.98,WSW,244,3.0,9.0,93,0.00,,,0.00,weatherlink.com 1.10,2013-07-22 03:45:00,